Wind_Speed
19 17 17 17 15 13 12 11 11 12 13 14 15 15 16 15 14 13 13 12 13 18 17 15 14 14 16 17 21 16 18 16 13 9 10 8 6 6 7 5 5 4 5 5 4
16 15 15 15 14 12 12 12 14 15 16 17 17 18 19 16 14 15 15 12 13 17 16 15 16 17 15 14 17 13 13 10 9 8 6 5 2 6 7 6 7 7 7 6 5
14 14 13 14 13 13 15 16 17 18 18 17 18 19 20 17 15 14 14 13 14 15 13 12 12 14 15 15 14 12 9 8 6 5 4 2 3 7 7 11 14 14 13 13 11
12 13 14 14 15 16 17 18 19 19 18 18 18 18 17 15 10 12 13 12 14 14 10 9 9 7 10 12 10 17 15 12 13 11 8 7 7 8 10 12 11 11 11 10 11
12 14 15 16 18 19 20 20 21 19 18 17 18 18 16 14 8 14 13 11 11 11 9 8 4 3 5 17 18 15 11 9 8 7 5 3 4 8 9 5 3 5 4 5 7
12 14 17 18 20 21 23 22 21 17 15 16 18 17 16 9 12 15 13 11 8 7 6 6 4 5 15 17 13 10 7 4 2 2 2 2 4 3 2 5 5 7 4 2 1
14 16 19 21 23 24 23 22 19 16 15 18 17 17 14 9 12 11 11 11 8 7 6 9 8 9 12 11 10 8 5 3 0 2 4 3 6 3 4 9 7 5 8 6 4
19 21 22 24 25 24 23 20 16 16 16 15 14 13 11 10 8 7 7 7 6 6 8 10 8 7 6 6 5 5 3 0 1 1 3 6 7 6 15 13 11 11 10 9 7
21 23 24 24 23 22 21 18 15 14 14 14 12 10 8 8 7 7 8 7 7 9 9 7 6 1 4 4 3 2 1 2 1 4 6 9 10 13 15 10 3 6 7 7 8
22 23 23 22 22 22 20 16 15 13 13 13 11 9 9 8 7 7 8 9 7 9 7 5 4 3 4 2 3 0 1 4 6 6 7 9 7 8 6 1 6 5 5 4 8
21 21 21 21 21 20 19 19 17 15 12 10 11 11 9 8 6 6 7 9 9 7 5 3 2 2 1 3 2 3 5 8 8 4 9 6 5 2 4 5 4 4 3 4 7
18 19 19 19 19 19 19 17 15 16 15 14 12 10 8 7 5 4 3 6 8 6 4 5 2 1 2 3 4 6 6 6 3 8 8 3 0 5 8 7 5 3 1 4 5
17 16 16 16 17 18 16 17 15 13 15 15 12 9 7 7 6 5 3 3 5 3 2 5 4 2 2 2 3 7 5 10 11 9 4 3 5 3 5 6 5 3 2 3 3
16 15 16 16 17 18 18 14 15 14 7 7 6 8 4 6 8 8 5 3 5 5 7 4 3 1 2 5 7 7 9 12 11 7 3 1 5 6 3 3 2 3 3 4 3
16 15 16 17 17 15 15 14 15 8 4 6 9 5 7 3 4 7 6 5 4 5 3 4 3 2 4 6 9 6 14 13 8 5 6 2 3 4 4 6 7 8 9 4 6
15 16 17 17 16 14 14 12 12 4 4 5 6 5 5 7 7 8 5 4 4 5 4 2 3 2 4 7 11 10 11 5 1 4 2 3 3 2 6 8 8 6 5 6 10
14 15 15 16 14 13 14 12 7 3 12 8 9 6 6 7 7 7 6 2 2 2 1 1 2 3 6 8 6 10 7 1 1 1 1 2 4 5 11 11 7 4 5 12 18
14 15 15 14 13 16 15 13 3 12 9 11 11 7 3 5 7 7 7 9 8 5 3 2 2 2 5 7 7 7 8 3 2 1 4 7 5 7 15 13 5 10 16 23 23
13 13 13 13 15 16 14 5 4 13 14 13 12 8 5 4 3 3 7 8 9 10 4 4 0 0 6 6 4 3 3 3 2 3 3 4 4 9 19 20 15 19 23 23 23
12 12 12 13 15 15 13 6 12 13 14 12 7 6 6 5 2 2 3 5 5 9 7 7 1 1 7 2 3 3 2 2 3 1 2 7 7 7 13 22 17 24 24 28 30
12 12 13 14 15 15 13 7 15 14 12 11 8 6 6 4 2 2 4 2 4 7 8 8 4 2 5 4 6 5 3 1 1 0 1 3 7 9 12 21 18 25 32 30 27
12 10 13 14 15 14 11 11 12 12 10 8 8 6 5 5 3 3 2 1 3 5 6 10 5 5 9 4 2 1 3 2 1 2 5 7 16 7 9 13 20 32 31 28 27
11 10 13 14 13 15 13 12 12 12 10 8 8 7 7 5 3 3 2 1 4 6 9 12 6 7 1 1 2 3 6 12 12 8 13 5 12 13 24 28 28 30 27 27 24
10 11 15 14 10 11 12 12 12 11 9 8 7 7 6 5 4 3 2 3 6 8 11 12 6 7 8 12 17 22 20 18 15 11 14 28 33 26 20 24 30 27 28 27 31
12 9 14 15 12 12 13 12 11 11 8 9 8 5 6 5 3 4 3 4 7 11 10 12 11 15 14 15 19 23 20 20 24 26 20 27 29 25 26 28 27 30 31 37 39
10 6 12 10 13 13 12 12 11 10 9 9 6 7 5 4 4 4 4 6 5 9 12 16 11 17 21 15 14 26 29 25 13 11 20 21 28 26 29 28 31 35 36 40 46
11 8 10 11 13 13 13 13 12 10 8 8 6 6 6 5 5 5 7 5 9 12 13 15 13 14 14 13 18 23 3 7 21 26 25 24 29 28 28 32 35 39 43 50 52
Wind_Direction
247 239 233 230 228 226 216 205 197 190 171 157 152 146 138 137 139 133 124 117 131 133 117 109 117 133 148 161 156 145 126 125 124 122 132 128 101 54 54 84 87 96 109 102 116
234 230 223 220 217 210 198 189 182 173 161 159 151 145 144 148 143 149 132 114 129 128 127 115 118 135 137 138 143 133 121 122 126 126 131 141 87 22 46 80 86 102 110 111 112
224 220 213 205 197 192 185 174 174 166 160 157 152 150 161 156 154 143 131 120 123 134 130 127 123 125 121 126 137 119 107 114 114 129 130 137 60 42 56 108 106 101 92 84 84
207 200 193 185 182 179 172 166 168 157 161 155 153 162 164 156 155 152 142 131 134 137 147 140 138 114 109 125 131 122 109 95 96 98 96 85 74 81 94 120 119 113 98 87 81
186 182 174 176 171 165 161 166 155 161 158 156 162 165 168 170 171 165 163 152 156 161 164 157 141 143 102 123 123 117 112 100 93 92 82 87 108 102 104 72 113 139 111 87 83
169 167 168 164 158 156 160 156 159 156 151 164 166 160 165 194 180 180 177 179 184 174 168 159 186 148 133 134 141 132 117 116 120 160 183 126 153 164 179 350 342 210 170 125 79
156 158 156 153 152 157 152 156 153 150 159 162 159 167 182 158 165 181 185 188 198 185 155 140 135 138 139 128 124 141 139 105 314 291 244 252 197 136 261 262 280 223 205 184 205
148 148 147 148 152 150 153 150 151 158 153 145 151 154 156 151 171 187 182 183 168 158 140 138 128 127 124 130 137 137 159 155 49 21 281 292 217 266 291 279 249 240 230 209 193
138 141 142 145 148 150 149 149 157 146 136 139 141 135 135 142 146 155 159 157 159 162 151 143 129 150 145 157 151 148 104 24 272 248 295 299 307 289 294 294 281 217 197 217 233
139 141 144 147 151 151 151 151 146 134 134 134 132 127 136 133 145 157 166 165 157 165 164 185 183 155 139 113 142 180 349 338 344 298 307 324 321 317 319 107 136 163 182 218 235
143 146 151 154 154 155 154 152 145 136 137 130 126 128 132 125 131 157 174 181 191 189 186 193 267 204 42 30 39 358 336 325 328 323 334 345 354 3 131 136 160 183 207 244 228
147 149 152 150 153 154 153 148 139 136 122 116 118 119 116 112 101 125 152 179 205 225 234 236 215 91 27 19 10 347 325 328 325 326 327 336 159 105 112 136 128 130 178 219 212
156 155 151 152 153 156 154 151 146 136 115 102 100 104 107 91 99 101 130 176 173 188 186 187 133 58 20 355 338 341 319 317 311 319 307 358 102 142 125 96 80 67 59 62 82
162 160 160 159 159 159 156 155 154 139 110 95 83 61 64 93 72 76 82 111 137 134 137 133 129 66 315 320 341 335 320 316 309 300 212 57 169 55 134 140 114 129 176 183 184
168 167 165 166 160 160 155 156 164 153 75 103 90 100 66 84 97 59 64 71 108 138 172 148 182 269 303 330 341 326 321 317 301 237 207 187 138 72 149 188 187 204 229 260 301
170 170 171 165 163 159 166 164 165 153 102 113 127 113 93 88 76 65 59 82 97 107 114 182 225 260 307 326 329 326 326 324 56 143 179 161 29 108 167 161 182 207 256 293 311
161 165 172 170 174 173 167 165 151 119 152 141 137 133 106 90 81 80 72 130 124 193 204 201 241 270 306 320 321 337 344 313 231 358 197 225 319 171 176 175 185 215 290 311 315
159 164 166 167 169 162 160 160 118 144 147 147 153 152 136 101 86 59 79 78 71 54 94 81 236 303 323 346 343 6 26 50 245 306 309 292 178 193 193 194 252 272 300 319 327
154 162 166 167 164 162 164 150 125 149 154 157 152 166 146 123 114 75 86 74 60 46 62 19 258 260 340 335 340 344 19 27 6 5 302 301 164 207 223 229 258 288 305 315 319
147 154 166 172 170 173 169 149 148 156 160 164 171 177 168 161 131 75 85 52 49 35 34 6 0 225 338 323 337 336 346 346 358 18 293 298 285 231 238 243 286 302 313 326 325
153 159 160 161 167 174 175 163 159 161 171 179 192 173 175 165 183 113 125 103 40 19 15 5 346 308 337 308 298 273 255 235 43 16 183 302 269 284 288 286 297 316 326 328 329
162 168 169 169 168 178 181 173 167 176 182 184 179 182 177 176 167 153 156 125 8 359 354 353 324 331 322 292 333 209 191 216 3 249 248 246 276 279 319 298 295 312 314 315 317
176 179 176 175 182 182 180 179 180 185 187 185 182 183 185 180 160 176 165 269 321 336 341 344 326 331 280 252 298 260 266 289 289 284 253 234 273 297 297 301 297 297 296 305 312
176 179 182 186 188 188 189 179 175 174 180 182 184 177 176 170 176 168 213 284 303 313 323 330 316 299 271 290 294 288 289 287 273 262 261 261 284 309 311 306 301 296 301 303 302
178 190 184 192 186 182 179 179 178 176 176 168 170 178 183 180 208 240 261 292 309 316 322 324 310 307 301 306 296 294 293 288 276 282 261 296 292 311 309 303 302 300 301 303 302
186 181 187 186 185 183 185 182 185 182 180 183 181 188 206 224 235 255 279 298 299 312 313 310 303 306 306 310 304 305 308 295 281 293 288 302 299 320 310 306 306 306 303 308 316
199 190 184 183 180 184 185 185 185 189 186 196 205 212 227 257 269 290 303 291 297 300 301 295 294 300 295 302 307 299 250 304 306 304 302 301 312 311 308 305 307 307 312 312 311
Height
3109 3112 3114 3117 3119 3123 3126 3129 3131 3133 3135 3135 3138 3140 3140 3143 3143 3143 3147 3150 3149 3151 3152 3153 3152 3154 3155 3157 3159 3163 3163 3164 3166 3168 3172 3172 3173 3173 3172 3174 3173 3175 3173 3175 3175
3106 3108 3111 3114 3118 3121 3125 3127 3130 3133 3134 3136 3138 3140 3142 3144 3145 3148 3150 3151 3151 3152 3154 3154 3155 3156 3156 3159 3162 3164 3164 3165 3167 3169 3171 3173 3172 3173 3172 3173 3174 3173 3173 3174 3174
3103 3106 3109 3112 3117 3120 3123 3126 3129 3133 3134 3137 3139 3141 3143 3145 3148 3150 3151 3152 3153 3153 3155 3157 3158 3158 3159 3160 3163 3164 3166 3166 3168 3168 3171 3171 3172 3172 3173 3175 3174 3176 3175 3175 3175
3101 3105 3108 3111 3115 3119 3122 3125 3130 3132 3135 3137 3140 3143 3144 3146 3150 3149 3151 3153 3154 3155 3157 3159 3161 3161 3159 3161 3164 3164 3167 3169 3168 3167 3171 3171 3170 3171 3174 3174 3173 3176 3176 3177 3174
3101 3104 3106 3110 3114 3118 3122 3127 3130 3133 3136 3138 3142 3143 3144 3147 3148 3149 3152 3153 3155 3157 3158 3160 3160 3160 3161 3162 3164 3166 3169 3169 3168 3169 3170 3170 3170 3171 3173 3174 3174 3176 3176 3177 3175
3101 3103 3106 3110 3115 3119 3124 3128 3131 3134 3136 3139 3142 3143 3146 3149 3148 3150 3152 3153 3156 3158 3158 3159 3159 3160 3161 3163 3165 3167 3168 3168 3169 3169 3170 3169 3170 3172 3171 3172 3173 3175 3175 3176 3176
3101 3104 3108 3112 3116 3121 3125 3129 3132 3134 3138 3141 3142 3144 3147 3149 3149 3150 3151 3154 3156 3158 3159 3158 3159 3160 3164 3164 3164 3163 3168 3168 3169 3168 3168 3169 3171 3171 3170 3170 3171 3171 3172 3173 3174
3104 3107 3110 3114 3119 3122 3127 3131 3134 3137 3140 3141 3144 3146 3148 3149 3150 3151 3153 3154 3156 3158 3159 3159 3160 3162 3163 3164 3166 3166 3168 3169 3169 3168 3168 3168 3168 3168 3166 3165 3166 3167 3168 3169 3171
3106 3109 3113 3117 3121 3125 3129 3133 3137 3139 3141 3144 3146 3148 3149 3150 3151 3152 3154 3155 3156 3158 3159 3160 3161 3163 3165 3165 3165 3166 3167 3168 3168 3166 3166 3166 3166 3164 3162 3161 3162 3163 3165 3166 3166
3110 3112 3116 3120 3124 3128 3132 3136 3139 3141 3144 3145 3147 3151 3151 3152 3152 3153 3155 3156 3157 3158 3160 3162 3162 3163 3164 3164 3165 3166 3167 3166 3165 3165 3164 3163 3163 3161 3158 3159 3160 3162 3163 3164 3164
3113 3115 3118 3122 3126 3130 3134 3137 3142 3145 3145 3146 3148 3149 3151 3152 3153 3154 3155 3156 3158 3159 3160 3161 3162 3163 3163 3164 3164 3164 3163 3163 3162 3162 3162 3161 3160 3159 3157 3158 3160 3161 3161 3161 3161
3116 3118 3121 3125 3128 3132 3136 3139 3142 3146 3146 3147 3148 3150 3151 3151 3153 3153 3155 3156 3157 3158 3159 3161 3161 3162 3162 3163 3162 3162 3162 3161 3160 3160 3160 3159 3159 3159 3158 3158 3159 3159 3159 3159 3158
3119 3121 3124 3127 3131 3134 3138 3141 3143 3145 3147 3150 3150 3151 3152 3154 3152 3153 3154 3154 3155 3156 3158 3159 3161 3161 3162 3162 3162 3161 3160 3159 3159 3157 3157 3157 3158 3158 3158 3158 3158 3158 3158 3158 3158
3120 3122 3126 3129 3134 3135 3138 3141 3144 3145 3148 3152 3151 3152 3152 3152 3153 3153 3154 3156 3155 3157 3158 3160 3160 3161 3162 3162 3161 3159 3158 3156 3155 3156 3156 3155 3157 3156 3157 3157 3158 3158 3156 3156 3156
3120 3123 3126 3130 3132 3136 3140 3141 3144 3146 3148 3154 3152 3153 3152 3154 3155 3155 3154 3155 3156 3157 3160 3161 3161 3161 3161 3160 3159 3158 3155 3153 3151 3151 3153 3154 3155 3156 3155 3155 3154 3154 3153 3154 3154
3120 3123 3126 3130 3133 3136 3139 3141 3144 3148 3148 3152 3153 3153 3155 3154 3155 3155 3156 3157 3157 3158 3159 3160 3160 3161 3160 3159 3157 3156 3154 3152 3150 3151 3152 3152 3154 3155 3153 3153 3153 3153 3152 3152 3152
3120 3123 3127 3130 3133 3135 3138 3141 3145 3144 3150 3152 3153 3154 3155 3156 3156 3157 3157 3157 3158 3159 3159 3159 3159 3159 3159 3158 3156 3155 3152 3151 3151 3151 3151 3151 3151 3151 3151 3151 3151 3151 3150 3149 3148
3120 3123 3126 3129 3132 3135 3139 3142 3143 3145 3147 3150 3152 3155 3156 3156 3157 3157 3157 3157 3158 3158 3157 3158 3159 3158 3158 3157 3156 3154 3154 3153 3154 3154 3153 3150 3150 3150 3150 3149 3148 3147 3146 3144 3143
3121 3124 3126 3129 3132 3136 3140 3141 3142 3145 3148 3150 3153 3155 3155 3156 3158 3158 3157 3158 3158 3157 3158 3157 3157 3157 3157 3155 3157 3155 3155 3155 3154 3154 3153 3149 3150 3149 3147 3146 3145 3144 3143 3141 3139
3121 3124 3126 3129 3132 3136 3139 3140 3142 3145 3148 3150 3152 3154 3154 3156 3157 3157 3158 3159 3159 3159 3158 3158 3157 3157 3157 3156 3156 3156 3156 3156 3155 3155 3154 3148 3145 3144 3144 3144 3142 3140 3138 3135 3132
3122 3125 3127 3129 3133 3136 3139 3140 3142 3145 3148 3150 3151 3152 3154 3155 3156 3157 3159 3160 3159 3159 3158 3157 3158 3158 3156 3156 3155 3155 3155 3155 3156 3156 3156 3155 3144 3142 3141 3141 3138 3134 3131 3128 3125
3122 3125 3127 3130 3134 3135 3138 3140 3142 3144 3147 3148 3150 3151 3152 3154 3155 3156 3158 3158 3158 3158 3158 3157 3155 3154 3155 3154 3153 3153 3153 3153 3154 3155 3154 3153 3142 3138 3138 3136 3134 3130 3128 3125 3121
3122 3125 3127 3130 3132 3134 3136 3139 3141 3143 3145 3147 3149 3150 3151 3153 3155 3156 3157 3158 3158 3158 3157 3156 3154 3154 3153 3155 3153 3152 3151 3151 3151 3150 3148 3149 3138 3135 3134 3133 3130 3127 3123 3120 3115
3122 3124 3127 3129 3131 3133 3135 3137 3139 3142 3145 3146 3148 3150 3151 3152 3154 3155 3156 3156 3156 3156 3155 3154 3154 3154 3154 3153 3151 3148 3147 3146 3147 3146 3143 3136 3132 3131 3131 3127 3123 3119 3116 3112 3108
3121 3123 3125 3127 3130 3132 3135 3137 3139 3141 3144 3146 3147 3149 3151 3152 3153 3153 3154 3154 3154 3153 3152 3152 3151 3150 3149 3148 3145 3141 3140 3140 3138 3137 3137 3130 3128 3126 3123 3119 3116 3113 3110 3106 3101
3121 3122 3124 3126 3129 3131 3134 3136 3139 3141 3143 3145 3146 3148 3149 3150 3152 3152 3152 3152 3152 3151 3150 3149 3148 3146 3143 3144 3141 3136 3134 3130 3130 3131 3128 3126 3121 3120 3115 3111 3108 3105 3101 3096 3090
3118 3121 3123 3126 3128 3131 3133 3135 3138 3140 3142 3144 3145 3147 3148 3149 3149 3149 3150 3150 3150 3148 3147 3146 3145 3143 3140 3139 3138 3131 3127 3127 3127 3125 3123 3120 3117 3113 3109 3106 3103 3098 3094 3088 3082